Location: Marcé
(47.5801°N, 0.3280°W)
Time: 08:37:11
(UTC+01:00)

Vanguard 1 - Pass Details

Date: 07 December 2021
Orbit: 652 x 3830 km, 34.2° (Epoch: 16 January)

Event Time Altitude Azimuth Distance (km) Brightness Sun altitude
Rises 22:08:36 0° 204° (SSW) 6,329 14.2 -48.9°
Reaches altitude 10° 22:13:03 10° 195° (SSW) 5,724 13.8 -49.6°
Enters shadow 22:15:36 16° 188° (S) 5,449 13.6 -50.0°
